www.pogodaiklimat.ru

Погода и климат >> Архив погоды >> Франция >> Динар


ПОГОДА в Динаре

  • Прогноз погоды в Динаре
  • Монитор погоды в Динаре

АРХИВ ПОГОДЫ в Динаре

Время (UTC), дата Ветер
(напр.,м/с)
 
Видим.   Явления Облачность Т
(С)
Тd
(С)
f
(%)
Тe
(С)
Тes
(С)
Комфортность P
(гПа)
Po
(гПа)
Тmin
(С)
Tmax
(С)
R
(мм)
R24
(мм)
S
(см)
01 15.08 З 2 35 км 10/10 420 м
[]
+16.3 +14.5 89 +16 +16 1015.4 1007.7
02 15.08 З 2 29 км н/о +15.6 +13.6 88 +15 +15 1015.5 1007.8
03 15.08 З 2
{7}
19 км 10/10 300 м
[]
+16.0 +14.0 88 +16 +16 1015.8 1008.1 0
04 15.08 З 3 19 км 10/10 450 м
[]
+16.0 +13.7 86 +16 +16 1015.9 1008.2
05 15.08 З 4
{9}
19 км 10/10 450 м
[]
+15.7 +13.5 87 +15 +15 1016.4 1008.7
06 15.08 З 2
{7}
19 км 10/10 300 м
[]
+15.6 +13.8 89 +15 +15 1017.0 1009.3 +15.4 +18.7 0.2 0
07 15.08 ЮЗ 2 19 км 10/10 420 м
[]
+16.0 +14.2 89 +16 +16 1017.4 1009.7
08 15.08 З 4 40 км 10/10 570 м
[]
+17.6 +13.7 78 +17 +17 1018.0 1010.3
09 15.08 З 5
{14}
40 км 10/10 600 м
[]
+18.3 +13.2 72 +18 +19 1018.4 1010.7 0
10 15.08 З 4 55 км 10/8 750 м
[]
+19.1 +13.5 70 +20 +21 1018.9 1011.2
11 15.08 З 4 35 км 10/10 800 м
[]
+19.7 +12.9 65 +21 +21 комфорт 1019.4 1011.8
12 15.08 З 4
{12}
35 км 10/10 600 м
[]
+20.2 +12.4 61 +22 +23 комфорт 1019.6 1012.0 0
13 15.08 СЗ 4 50 км 10/8 900 м
[]
+19.9 +12.9 64 +22 +23 комфорт 1019.7 1012.1
14 15.08 СЗ 4 45 км 9/1 900 м
[]
+21.4 +13.6 61 +24 +29 комфорт 1020.1 1012.5
15 15.08 СЗ 4
{12}
40 км 10/10 1500 м
[]
+19.4 +13.3 68 +21 +21 комфорт 1020.4 1012.7 0
16 15.08 СЗ 3 60 км н/о +20.5 +12.2 59 +23 +23 комфорт 1020.2 1012.6
17 15.08 СЗ 3 40 км 9/9 1500 м
[]
+19.7 +12.9 65 +22 +22 комфорт 1020.6 1012.9
18 15.08 СЗ 2
{8}
40 км 9/9 1000 м
[]
+18.4 +13.7 74 +20 +20 1020.9 1013.2 +15.6 +21.8 0
19 15.08 СЗ 2 45 км 10/8 1300 м
[]
+17.8 +13.3 75 +19 +19 1020.7 1013.0
20 15.08 СЗ 1 30 км 9/8 1080 м
[]
+16.9 +14.0 83 +18 +18 1020.9 1013.2
21 15.08 СЗ 1
{3}
45 км н/о +15.5 +13.3 87 +16 +16 1021.1 1013.3 0
22 15.08 ЮЗ 1 30 км 10/10 1300 м
[]
+15.7 +13.9 89 +17 +17 1021.0 1013.2
23 15.08 Ю 1 28 км 10/1 1260 м
[]
+15.1 +13.8 92 +16 +16 1020.9 1013.1
00 16.08 Ю 1
{3}
40 км 10/10 600 м
[]
+15.3 +13.8 91 +16 +16 1020.3 1012.5 0
01 16.08 Ю 1 30 км 10/10 1500 м
[]
+15.4 +13.8 90 +16 +16 1020.1 1012.3
02 16.08 Ю 2 19 км н/о +13.9 +12.6 92 +14 +14 1019.5 1011.7
03 16.08 Ю 2
{4}
25 км н/о +13.6 +12.3 92 +13 +13 1019.1 1011.3 0
04 16.08 Ю 1 19 км н/о +12.5 +11.4 93 +12 +12 1018.8 1011.0
05 16.08 Ю 1 20 км н/о +12.5 +11.7 95 +12 +12 1018.5 1010.7
06 16.08 Ю 2
{5}
16 км н/о +13.2 +12.4 95 +13 +13 1018.0 1010.2 +12.1 +18.5 0
07 16.08 Ю 2 19 км н/о +15.7 +13.4 86 +16 +16 1017.7 1010.0
08 16.08 Ю 3 50 км 10/10 1110 м
[]
+17.4 +13.3 77 +17 +17 1017.3 1009.6
09 16.08 ЮЗ 3
{10}
50 км 8/8 600 м
[]
+18.3 +13.8 75 +19 +21 1017.0 1009.3 0
10 16.08 Ю 4 50 км 10/10 870 м
[]
+19.3 +13.2 68 +21 +21 комфорт 1016.0 1008.4
11 16.08 Ю 4 55 км 10/9 800 м
[]
+20.1 +14.2 69 +22 +23 комфорт 1015.3 1007.7
12 16.08 ЮЗ 5
{16}
45 км 10/10 600 м
[]
+20.7 +13.2 62 +23 +24 комфорт 1014.8 1007.2 0
13 16.08 ЮЗ 5 19 км 10/10 1080 м
[]
+21.6 +13.2 59 +24 +24 комфорт 1014.1 1006.5
14 16.08 Ю 5 19 км 10/9 1110 м
[]
+21.5 +13.1 59 +24 +24 комфорт 1013.5 1005.9
15 16.08 ЮЗ 5-16
{16}
19 км 9/9 1000 м
[]
+21.0 +13.7 63 +24 +24 комфорт 1013.0 1005.4 0
16 16.08 ЮЗ 5 50 км 10/9 900 м
[]
+20.1 +13.8 67 +22 +22 комфорт 1012.2 1004.6
17 16.08 ЮЗ 4 24 км слаб. дождь 10/9 960 м
[]
+18.9 +14.6 76 +20 +20 1012.4 1004.8 0.0
18 16.08 Ю 3
{11}
11 км слаб. дождь 10/10 1000 м
[]
+17.3 +15.3 88 +17 +17 1011.8 1004.2 +13.2 +21.9 0.8 0
19 16.08 Ю 3 19 км слаб. дождь 10/9 750 м
[]
+17.0 +15.2 89 +17 +17 1011.1 1003.5 0.6
20 16.08 Ю 4 16 км слаб. дождь 10/10 600 м
[]
+17.1 +15.3 89 +17 +17 1010.9 1003.3 0.6
21 16.08 Ю 4
{12}
50 км 10/10 300 м
[]
+17.2 +15.7 91 +17 +17 1010.5 1002.9 1 0
22 16.08 Ю 4 45 км 10/9 400 м
[]
+17.5 +16.2 92 +17 +17 1009.8 1002.2
23 16.08 ЮЗ 4 60 км 10/10 330 м
[]
+18.0 +16.5 91 +18 +18 1009.7 1002.1
00 17.08 Ю 4
{10}
60 км 10/10 300 м
[]
+18.1 +16.8 92 +18 +18 1009.0 1001.4 0
01 17.08 ЮЗ 3 55 км 10/10 400 м
[]
+18.5 +17.0 91 +19 +19 1008.9 1001.3
02 17.08 ЮЗ 3 60 км 10/9 300 м
[]
+18.4 +16.9 91 +19 +19 1008.8 1001.2
03 17.08 ЮЗ 3
{10}
60 км 10/10 300 м
[]
+18.8 +16.9 89 +20 +20 1008.4 1000.8 0
04 17.08 ЮЗ 3 55 км 10/10 300 м
[]
+18.6 +17.1 91 +20 +20 1008.1 1000.5
05 17.08 ЮЗ 3 9000 м дождь 10/10 330 м
[]
+18.5 +17.2 92 +20 +20 1008.0 1000.4 0.0
06 17.08 ЮЗ 3
{8}
50 км 10/10 200 м
[]
+18.4 +17.4 94 +19 +19 1008.2 1000.6 +16.9 +18.8 1 0
07 17.08 ЮЗ 2 4500 м дымка 10/10 210 м
[]
+18.6 +17.6 94 +20 +20 1008.8 1001.2
08 17.08 З 2 17 км 10/10 210 м
[]
+16.3 +15.0 92 +16 +16 1009.2 1001.5 0.6
09 17.08 З 2
{7}
12 км 10/10 300 м
[]
+16.9 +14.9 88 +17 +17 1009.6 1002.0 0.6 0
10 17.08 З 2 35 км 10/10 870 м
[]
+17.6 +14.5 82 +18 +18 1009.2 1001.6
11 17.08 З 2 35 км 10/10 930 м
[]
+18.4 +14.5 78 +19 +19 1010.0 1002.4
12 17.08 СЗ 4
{7}
40 км 10/10 600 м
[]
+20.0 +13.9 68 +22 +22 комфорт 1009.7 1002.1 0
13 17.08 З 2 40 км н/о +20.0 +13.2 65 +23 +23 комфорт 1009.7 1002.1
14 17.08 СЗ 2 19 км 9/4 930 м
[]
+20.6 +13.8 65 +24 +28 комфорт 1009.6 1002.1
15 17.08 СЗ 1
{5}
40 км 9/9 1000 м
[]
+20.4 +14.1 67 +24 +28 комфорт 1009.6 1002.0 0
16 17.08 С 1 30 км 10/9 1110 м
[]
+19.2 +14.0 72 +22 +22 комфорт 1009.3 1001.7 0.0
17 17.08 ЮЗ 2 40 км 10/1 1110 м
[]
+19.3 +13.7 70 +21 +22 комфорт 1009.6 1002.0 0.0
18 17.08 ЮЗ 2
{8}
13 км слаб. дождь 10/0
[]
+17.8 +14.5 81 +18 +18 1009.4 1001.8 +16.2 +20.9 0.2 0
19 17.08 ЮЗ 2 9000 м слаб. дождь 10/10 480 м
[]
+16.6 +15.3 92 +17 +17 1009.2 1001.6 1
20 17.08 ЮЗ 2 14 км слаб. дождь 9/3 360 м
[]
+16.1 +15.0 93 +16 +16 1009.2 1001.5 0.4
21 17.08 Ю 2
{7}
30 км 10/10 1500 м
[]
+15.0 +13.5 91 +15 +15 1008.7 1001.0 2 0
22 17.08 Ю 2 4700 м слаб. дождь 10/4 960 м
[]
+14.7 +13.6 93 +14 +14 1008.4 1000.7 0.6
23 17.08 З 1 3500 м слаб. дождь 10/10 270 м
[]
+14.5 +13.7 95 +16 +16 1007.9 1000.2 2
00 18.08 СЗ 1
{4}
2600 м дождь 10/10 100 м
[]
+14.1 +13.6 97 +15 +15 1007.2 999.5 7 0
01 18.08 СВ 1 2200 м дождь 10/10 90 м
[]
+14.2 +13.7 97 +15 +15 1005.9 998.2 4
02 18.08 В 1 3300 м дождь 10/10 180 м
[]
+14.2 +13.9 98 +14 +14 1004.7 997.0 4
03 18.08 СВ 1
{3}
16 км 10/10 50 м
[]
+14.2 +13.9 98 +15 +15 1004.2 996.5 12 0
04 18.08 ЮВ 2 45 км 10/6 60 м
[]
+14.3 +14.0 98 +14 +14 1003.2 995.5
05 18.08 З 2 19 км 10/10 120 м
[]
+14.5 +14.0 97 +14 +14 1005.6 997.9
06 18.08 З 1
{5}
50 км 8/8 200 м
[]
+14.7 +14.2 97 +15 +15 1006.4 998.7 +14.1 +17.8 21 0
07 18.08 З 2 55 км 10/10 400 м
[]
+15.2 +14.6 96 +15 +15 1007.3 999.6
08 18.08 З 3 50 км 9/9 330 м
[]
+16.3 +14.3 88 +16 +16 1008.5 1000.9
09 18.08 З 3
{10}
55 км 9/9 600 м
[]
+17.7 +13.0 74 +18 +18 1009.2 1001.6 0
10 18.08 СЗ 3 35 км н/о +18.7 +12.0 65 +20 +20 1010.1 1002.5
11 18.08 З 3 45 км 10/10 1000 м
[]
+18.9 +11.9 64 +20 +20 1010.7 1003.1
12 18.08 З 3
{10}
50 км 9/9 1000 м
[]
+19.9 +11.6 59 +22 +24 комфорт 1010.8 1003.2 0
13 18.08 СЗ 3 50 км н/о +20.1 +12.1 60 +22 +22 комфорт 1011.3 1003.7
14 18.08 С 3 40 км 10/9 1170 м
[]
+18.8 +12.8 68 +20 +20 1011.8 1004.2
15 18.08 СЗ 4
{10}
45 км н/о +19.3 +12.6 65 +21 +21 комфорт 1012.1 1004.5 0
16 18.08 СЗ 3 30 км 8/4 1410 м
[]
+18.2 +12.4 69 +19 +20 1012.5 1004.9
17 18.08 СЗ 3 40 км 9/1 1380 м
[]
+18.5 +12.3 67 +19 +20 1012.5 1004.9
18 18.08 СЗ 3
{10}
40 км н/о +17.7 +13.0 74 +18 +18 1013.0 1005.3 +14.7 +20.8 0
19 18.08 СЗ 3 35 км 9/8 1200 м
[]
+17.4 +13.1 76 +18 +18 1013.4 1005.7
20 18.08 З 2 35 км 8/3 1140 м
[]
+16.5 +11.8 74 +17 +17 1014.4 1006.7
21 18.08 ЮЗ 2
{6}
35 км н/о +15.2 +11.8 80 +15 +15 1015.1 1007.4 0
22 18.08 ЮЗ 2 35 км н/о +14.4 +11.2 81 +14 +14 1015.6 1007.8
23 18.08 ЮЗ 2 30 км н/о +13.2 +10.9 86 +13 +13 1016.0 1008.2
00 19.08 ЮЗ 2
{6}
27 км н/о +13.1 +11.3 89 +12 +12 1016.4 1008.6 0
01 19.08 ЮЗ 2 19 км н/о +12.6 +11.2 91 +12 +12 1016.4 1008.6
02 19.08 ЮЗ 2 19 км н/о +12.3 +11.0 92 +12 +12 1016.6 1008.8
03 19.08 ЮЗ 2
{6}
19 км н/о +12.2 +11.1 93 +11 +11 1016.6 1008.8 0
04 19.08 ЮЗ 2 17 км н/о +11.7 +10.6 93 +11 +11 1016.9 1009.1
05 19.08 Ю 1 16 км н/о +11.2 +10.6 96 +11 +11 1017.5 1009.6
06 19.08 ЮЗ 2
{5}
19 км н/о +12.4 +11.5 94 +12 +12 1017.8 1010.0 +11.0 +17.8 0
07 19.08 ЮЗ 2 19 км н/о +14.5 +12.5 88 +14 +14 1018.2 1010.4
08 19.08 З 3 19 км н/о +16.3 +12.6 79 +16 +16 1018.5 1010.8
09 19.08 З 3
{9}
19 км 9/9 600 м
[]
+17.8 +11.8 68 +18 +18 1019.0 1011.3 0
10 19.08 З 3 50 км 8/6 900 м
[]
+18.4 +11.0 62 +19 +22 1019.4 1011.7
11 19.08 ЮЗ 3 60 км н/о +20.6 +10.4 52 +23 +23 комфорт 1019.5 1011.9
12 19.08 З 3
{9}
24 км 10/10 1000 м
[]
+19.5 +10.5 56 +21 +25 комфорт 1019.8 1012.1 0
13 19.08 СЗ 4 29 км 10/10 1260 м
[]
+19.1 +12.1 64 +20 +20 1020.2 1012.5
14 19.08 СЗ 3 19 км н/о +20.5 +10.9 54 +23 +23 комфорт 1019.9 1012.3
15 19.08 СЗ 3
{10}
45 км 10/10 1500 м
[]
+19.3 +11.1 59 +21 +21 комфорт 1020.3 1012.6 0
16 19.08 С 3 19 км н/о +19.2 +12.2 64 +21 +21 комфорт 1020.6 1012.9
17 19.08 СЗ 3 40 км 10/8 600 м
[]
+17.8 +12.0 69 +18 +18 1020.9 1013.2
18 19.08 СЗ 2
{8}
40 км 9/9 1000 м
[]
+17.8 +11.8 68 +18 +19 1021.0 1013.3 +12.4 +21.2 0
19 19.08 СЗ 2 40 км н/о +16.2 +12.0 76 +17 +17 1021.5 1013.7
20 19.08 СЗ 2 40 км н/о +15.8 +11.8 77 +16 +16 1022.2 1014.4
21 19.08 СЗ 2
{8}
45 км 10/10 1000 м
[]
+16.0 +11.4 74 +16 +16 1022.6 1014.8 0
22 19.08 ЮЗ 1 40 км н/о +14.3 +11.1 81 +15 +15 1022.9 1015.1
23 19.08 ЮЗ 1 35 км н/о +12.7 +10.4 86 +13 +13 1023.0 1015.1
00 20.08 З 1
{4}
40 км н/о +12.4 +10.6 89 +12 +12 1023.2 1015.3 0
01 20.08 ЮЗ 2 19 км н/о +11.6 +10.5 93 +11 +11 1023.1 1015.2
02 20.08 З 1 17 км н/о +10.9 +10.0 94 +10 +10 1022.8 1014.9
03 20.08 ЮЗ 2
{4}
19 км н/о +10.4 +9.6 95 +9 +9 1023.1 1015.2 0.2 0
04 20.08 ЮЗ 2 19 км н/о +10.5 +9.6 94 +9 +9 1023.3 1015.4
05 20.08 ЮЗ 1 19 км н/о +10.0 +9.2 95 +9 +9 1024.0 1016.0
06 20.08 ЮЗ 2
{4}
19 км н/о +10.8 +10.2 96 +10 +10 1024.6 1016.7 +9.7 +17.8 0.2 0
07 20.08 ЮЗ 1 19 км н/о +13.2 +11.8 91 +13 +13 1025.1 1017.2
08 20.08 ЮЗ 1 29 км н/о +15.7 +13.2 85 +16 +16 1025.4 1017.6
09 20.08 СЗ 2
{7}
19 км 9/9 300 м
[]
+17.3 +12.2 72 +18 +20 1025.8 1018.0 0
10 20.08 СЗ 2 19 км н/о +18.4 +12.6 69 +19 +19 1026.0 1018.3
11 20.08 СЗ 3 45 км н/о +18.8 +10.9 60 +20 +20 1026.3 1018.6
12 20.08 С 3
{9}
55 км н/о +19.2 +12.0 63 +21 +21 комфорт 1026.4 1018.7 0
13 20.08 С 3 50 км н/о +19.0 +11.1 60 +20 +20 1026.6 1018.9
14 20.08 С 3 30 км н/о +19.0 +11.8 63 +20 +20 1026.9 1019.2
15 20.08 С 4
{9}
35 км н/о +18.7 +11.3 62 +19 +19 1027.0 1019.3 0
16 20.08 С 6
{9}
40 км н/о +18.0 +10.4 61 +18 +18 1027.1 1019.3
17 20.08 С 5
{8}
45 км н/о +17.8 +10.4 62 +17 +17 1027.4 1019.6
18 20.08 С 2
{7}
35 км н/о +17.0 +10.8 67 +17 +17 1027.8 1020.0 +10.8 +19.6 0
19 20.08 С 2 40 км н/о +15.2 +10.8 75 +15 +15 1027.9 1020.1
20 20.08 С 1 35 км н/о +14.0 +10.6 80 +14 +14 1028.4 1020.5
21 20.08 С 1
{3}
35 км н/о +13.3 +10.3 82 +14 +14 1028.6 1020.7 0
22 20.08 С 1 30 км н/о +12.5 +10.4 87 +12 +12 1028.7 1020.8
23 20.08 СЗ 1 30 км н/о +11.6 +10.2 91 +12 +12 1028.7 1020.8
00 21.08 С 1
{1}
16 км н/о +10.9 +9.8 93 +11 +11 1028.6 1020.6 0
01 21.08 Ю 1 13 км н/о +10.6 +10.0 96 +11 +11 1028.3 1020.3
02 21.08 ЮВ 1 16 км н/о +10.3 +9.7 96 +10 +10 1028.3 1020.3
03 21.08 В 1
{4}
24 км н/о +11.5 +9.7 89 +11 +11 1028.0 1020.1 0
04 21.08 В 1 2000 м дымка н/о +10.3 +9.5 95 +11 +11 1028.1 1020.1 0.2
05 21.08 ЮВ 1 26 км 10/10
[]
+11.7 +10.1 90 +11 +11 1028.0 1020.1
06 21.08 В 1
{3}
29 км н/о +11.2 +9.3 88 +12 +12 1028.4 1020.4 +9.6 +17.0 0.2 0
07 21.08 В 1 30 км н/о +13.9 +11.1 83 +15 +15 1028.6 1020.7
08 21.08 В 1 35 км н/о +15.2 +11.8 80 +16 +16 1028.2 1020.4
09 21.08 В 1
{5}
19 км н/о +17.2 +11.9 71 +18 +18 1028.2 1020.4 0
10 21.08 В 2 2900 м дымка н/о +18.8 +10.4 58 +20 +20 1027.8 1020.1
11 21.08 В 1 35 км н/о +20.8 +10.9 53 +24 +24 комфорт 1027.3 1019.6
12 21.08 СВ 1
{5}
19 км н/о +22.0 +10.5 48 +24 +24 комфорт 1026.7 1019.1 0
13 21.08 С 3 30 км н/о +20.8 +12.0 57 +23 +23 комфорт 1026.7 1019.0
14 21.08 С 3 19 км н/о +20.5 +12.2 59 +23 +23 комфорт 1026.6 1018.9
15 21.08 СВ 3
{9}
35 км н/о +20.6 +13.3 63 +23 +23 комфорт 1026.4 1018.7 0
16 21.08 С 5
{8}
40 км н/о +20.1 +10.5 54 +21 +21 комфорт 1026.2 1018.5
17 21.08 СВ 3 19 км н/о +19.6 +9.2 51 +21 +21 комфорт 1025.9 1018.2
18 21.08 СВ 2
{6}
40 км н/о +19.2 +9.9 55 +21 +21 комфорт 1025.6 1017.9 +11.2 +22.4 0
19 21.08 СВ 2 35 км н/о +17.4 +11.0 66 +18 +18 1025.8 1018.0
20 21.08 СВ 2 35 км н/о +15.9 +10.9 72 +16 +16 1026.2 1018.4
21 21.08 СВ 2
{4}
40 км н/о +15.7 +11.9 78 +16 +16 1026.4 1018.6 0
22 21.08 СВ 1 30 км н/о +14.5 +10.5 77 +15 +15 1026.4 1018.6
23 21.08 СВ 1 27 км н/о +12.8 +10.2 84 +14 +14 1026.4 1018.5
00 22.08 штиль 0
{2}
27 км н/о +12.0 +10.4 90 +11 +11 1026.4 1018.5 0
01 22.08 Ю 1 19 км н/о +11.7 +10.6 93 +12 +12 1026.2 1018.3

 

Местоположение метеостанции Динар (Франция): широта 48.58 долгота -2.07 высота над уровнем моря 59 м.

В архиве по умолчанию представлена погода в Динаре за последнюю неделю. Архивные данные за месяц целиком и за предыдущие месяцы, начиная с января 2011 года, Вы можете получить, выбрав интересующий диапазон дат из раскрывающегося списка и нажав кнопку "Ввод!".


*Определитесь, кто Вы:
робот инопланетянин человек

Внимание! Время в таблицах - всемирное. Для получения местного времени необходимо прибавить поправку, которая равна 1 ч.

Смотрите также архив погоды в соседних городах и на ближайших метеорологических станциях:

Погода на Пуэнт-дю-Оке (Франция) (43 км)
Погода в Сен-Бриё аэропорту (Франция) (58 км)
Погода в Ренне (Франция) (62 км)
Погода в Аэропорту Джерси (Великобритания) (72 км)
Погода в Картере (Франция) (90 км)
Погода в Аэропорту Гернси (Великобритания) (102 км)
Погода в Ланьоне (Франция) (105 км)
Погода в Перрос-Гиреке (Франция) (106 км)
Погода в Лавале (Франция) (116 км)
Погода в Вигите ду Аумет (Франция) (126 км)

Пояснения к столбцам:

Ветер - указаны скорость ветра в м/с - средняя за 10 мин, порывы в срок и между сроками (в фигурных скобках) и направление, откуда дует ветер: С - северный, СВ - северо-восточный, В - восточный, ЮВ - юго-восточный, Ю - южный, ЮЗ - юго-западный, З - западный, СЗ - северо-западный.
Видимость - горизонтальная дальность видимости в метрах или километрах. При видимости от 1 до 10 км при отсутствии осадков обычно наблюдается дымка, при ухудшении видимости до 1 км и менее - туман. В сухую погоду видимость может ухудшаться дымом, пылью или мглою.
Явления - указаны атмосферные явления, наблюдавшиеся в срок или в последний час перед сроком; фигурными скобками обозначены явления, наблюдавшиеся между сроками (за 1-3 часа до срока); квадратными скобками обозначены град или гололедные отложения с указанием их диаметра в мм.
Облачность - указаны через наклонную черту общая и нижняя облачность в баллах и высота нижней границы облаков в метрах; квадратными скобками обозначены формы облаков: Ci - перистые, Cs - перисто-слоистые, Cc - перисто-кучевые, Ac - высококучевые, As - высокослоистые, Sc - слоисто-кучевые, Ns - слоисто-дождевые, Cu - кучевые, Cb - кучево-дождевые. Подробнее классификацию облаков см. в Атласе облаков (PDF).
T - Температура воздуха - температура, измеренная на высоте 2 м над землей.
Td - Температура точки росы - температура, при понижении до которой содержащийся в воздухе водяной пар достигнет насыщения.
f - Относительная влажность воздуха - влажноcть воздуха, измеренная на высоте 2 м над землей.
Te - Эффективная температура - температура, которую ощущает одетый по сезону человек в тени. Характеристика душности погоды. При расчете учитывается влияние влажности воздуха и скорости ветра на теплоощущения человека.
Tes - Эффективная температура на солнце - температура, которую ощущает человек, с поправкой на солнечный нагрев. Характеристика знойности погоды. Зависит от высоты солнца над горизонтом, облачности и скорости ветра. Ночью, в пасмурную погоду, а также при ветре 12 м/с и более поправка равна нулю.
P - Атмосферное давление - приведенное к уровню моря атмосферное давление.
Po - Атмосферное давление - измеренное на уровне метеостанции атмосферное давление.
Tmin - Минимальная температура - минимум температуры воздуха на высоте 2 м над землей.
Tmax - Максимальная температура - максимум температуры воздуха на высоте 2 м над землей.
R - Количество осадков - Количество выпавших осадков за период времени, мм. При наведении курсора мыши на число - период времени, за который выпало указанное количество осадков.
R24 - Количество осадков - Количество выпавших осадков за 24 часа, мм.
S - Снежный покров - Высота снежного покрова, см. При наведении курсора мыши на число - состояние снежного покрова и степень покрытия местности в баллах.